{"data":{"norad_id":48566,"epoch":"2026-09-19T20:57:37.090944Z","epoch_age_seconds":91423,"freshness":"FRESH","line1":"1 48566U 21041P   26262.87334596 -.00000311  00000+0  17266-5 0  9992","line2":"2 48566  53.1600 325.2113 0001127  99.8158 260.2970 15.31706646294701","mean_motion":15.31706646,"eccentricity":0.0001127,"inclination_deg":53.16,"raan_deg":325.2113,"arg_perigee_deg":99.8158,"mean_anomaly_deg":260.297,"bstar":1.7266e-6,"rev_number":29470,"period_min":94.012780042478,"perigee_km":469.94831771248,"apogee_km":471.49205012174,"semimajor_km":6848.8571839171,"source":"CELESTRAK","updated_at":"2026-09-20T09:00:39.134120Z"}}